PUA274 SAZM-SULS

Flight info

Callsign PUA274
Flight time N/A
Altitude 29000
Route ROPIS1G ROPIS UM792 DARKA
Aircraft A320/M-SDE3FGHIJ4RWY/LB1

Departure

Time 2026-04-26 19:14
Airport Ástor Piazzola International Airport (SAZM)

Arrival

Time N/A
Airport Capitan Corbeta CA Curbelo International Airport (SULS)
Time Latitude Longitude Altitude Speed Heading
2026-04-26 18:36 -37.93256 -57.58111 54 ft 0 kts 327°
2026-04-26 19:03 -37.93268 -57.58101 54 ft 2 kts 295°
2026-04-26 19:03 -37.93269 -57.58084 54 ft 2 kts 218°
2026-04-26 19:03 -37.93258 -57.58075 54 ft 2 kts 212°
2026-04-26 19:03 -37.93246 -57.58068 54 ft 2 kts 159°
2026-04-26 19:04 -37.93238 -57.58073 54 ft 0 kts 134°
2026-04-26 19:06 -37.93242 -57.58068 54 ft 2 kts 133°
2026-04-26 19:06 -37.93251 -57.58056 54 ft 1 kts 133°
2026-04-26 19:07 -37.93265 -57.58043 54 ft 5 kts 146°
2026-04-26 19:07 -37.93298 -57.58025 50 ft 4 kts 162°
2026-04-26 19:07 -37.93318 -57.58024 48 ft 2 kts 180°
2026-04-26 19:07 -37.93329 -57.58024 54 ft 3 kts 182°
2026-04-26 19:08 -37.93358 -57.58014 54 ft 4 kts 147°
2026-04-26 19:08 -37.93373 -57.57991 54 ft 3 kts 125°
2026-04-26 19:08 -37.93384 -57.57969 48 ft 3 kts 120°
2026-04-26 19:08 -37.93394 -57.57948 54 ft 3 kts 119°
2026-04-26 19:09 -37.93412 -57.57905 48 ft 6 kts 119°
2026-04-26 19:09 -37.93432 -57.57860 54 ft 5 kts 119°
2026-04-26 19:09 -37.93450 -57.57821 54 ft 5 kts 120°
2026-04-26 19:09 -37.93466 -57.57785 54 ft 4 kts 119°
2026-04-26 19:10 -37.93481 -57.57749 52 ft 7 kts 119°
2026-04-26 19:10 -37.93507 -57.57691 54 ft 7 kts 119°
2026-04-26 19:10 -37.93539 -57.57619 51 ft 14 kts 120°
2026-04-26 19:10 -37.93600 -57.57481 48 ft 19 kts 118°
2026-04-26 19:11 -37.93663 -57.57340 54 ft 18 kts 120°
2026-04-26 19:11 -37.93725 -57.57200 54 ft 20 kts 119°
2026-04-26 19:11 -37.93802 -57.57025 54 ft 25 kts 119°
2026-04-26 19:11 -37.93885 -57.56837 54 ft 24 kts 119°
2026-04-26 19:12 -37.93967 -57.56655 51 ft 23 kts 120°
2026-04-26 19:12 -37.94037 -57.56482 54 ft 17 kts 98°
2026-04-26 19:12 -37.94018 -57.56409 53 ft 5 kts 48°
2026-04-26 19:12 -37.93995 -57.56366 53 ft 8 kts 56°
2026-04-26 19:13 -37.93957 -57.56298 53 ft 7 kts 52°
2026-04-26 19:13 -37.93927 -57.56301 53 ft 5 kts 288°
2026-04-26 19:13 -37.93916 -57.56346 49 ft 7 kts 298°
2026-04-26 19:13 -37.93838 -57.56504 55 ft 49 kts 302°
2026-04-26 19:14 -37.93542 -57.57092 50 ft 107 kts 302°
2026-04-26 19:14 -37.93056 -57.58064 106 ft 146 kts 300°
2026-04-26 19:14 -37.92552 -57.59153 682 ft 140 kts 297°
2026-04-26 19:14 -37.92382 -57.59515 842 ft 144 kts 296°
2026-04-26 19:15 -37.91480 -57.61426 1551 ft 164 kts 297°
2026-04-26 19:15 -37.90860 -57.62733 1945 ft 182 kts 297°
2026-04-26 19:15 -37.90176 -57.64172 2343 ft 201 kts 297°
2026-04-26 19:15 -37.89438 -57.65710 3091 ft 203 kts 296°
2026-04-26 19:16 -37.88707 -57.67224 4035 ft 201 kts 297°
2026-04-26 19:16 -37.87977 -57.68741 4847 ft 203 kts 296°
2026-04-26 19:16 -37.87233 -57.70290 5589 ft 208 kts 296°
2026-04-26 19:16 -37.86470 -57.71863 6336 ft 212 kts 299°
2026-04-26 19:17 -37.85422 -57.73244 7067 ft 225 kts 317°
2026-04-26 19:17 -37.83982 -57.74137 7809 ft 239 kts 338°
2026-04-26 19:17 -37.82284 -57.74335 8536 ft 253 kts 356°
2026-04-26 19:17 -37.80533 -57.74191 9215 ft 258 kts 356°